Weather History for Longville, MN

Change the Weather History Date:

Friday, May 9, 2014

  Actual Average (KPWC) Record (KPWC)
Temperature  
Mean Temperature 45 °F -  
Max Temperature 53 °F 61 °F 82 °F (2007)
Min Temperature 37 °F 38 °F 32 °F (1999)
Degree Days  
Heating Degree Days 20    
Moisture  
Dew Point 40 °F    
Average Humidity 87    
Maximum Humidity 100    
Minimum Humidity 44    
Precipitation  
Precipitation 0.00 in - - ()
Sea Level Pressure  
Sea Level Pressure 29.58 in    
Wind  
Wind Speed 6 mph (WNW)    
Max Wind Speed 14 mph    
Max Gust Speed 22 mph    
Visibility 7 miles    
Events Rain    
Averages and records for this station are not official NWS values.
T = Trace of Precipitation, MM = Missing Value Source: NWS Daily Summary

Daily Weather History Graph

Daily Weather History Graph

Search for Another Location

Airport:

Trip Planner

Search our weather history database for the weather conditions in past years. The results will help you decide how hot, cold, wet, or windy it might be!

Date:

Astronomy

May. 09, 2014 Rise Set
Actual Time 5:49 AM CDT 8:38 PM CDT
Civil Twilight 5:14 AM CDT 9:13 PM CDT
Nautical Twilight 4:29 AM CDT 9:58 PM CDT
Astronomical Twilight 3:36 AM CDT 10:51 PM CDT
Moon 3:16 PM CDT (5/9) 3:13 AM CDT (5/9)
Length of Visible Light 15h 59m
Length of Day
14h 48m
Waxing Gibbous, 74% of the Moon is Illuminated
May 9
Waxing Gibbous
May 14
Full
May 21
Last Quarter
May 28
New
Jun 5
First Quarter

Hourly Weather History & Observations

Time (CDT) Temp. Windchill Dew Point Humidity Pressure Visibility Wind Dir Wind Speed Gust Speed Precip Events Conditions
12:17 AM 48.2 °F - 48.2 °F 100% 29.55 in 5.0 mi Calm Calm - N/A   Overcast
12:36 AM 48.2 °F - 48.2 °F 100% 29.55 in 3.0 mi North 3.5 mph - N/A   Overcast
12:56 AM 48.2 °F - 48.2 °F 100% 29.54 in 2.5 mi North 3.5 mph - N/A   Overcast
1:24 AM 48.2 °F - 48.2 °F 100% 29.53 in 1.0 mi North 4.6 mph - N/A Rain Rain
1:55 AM 48.2 °F - 46.4 °F 93% 29.52 in 1.0 mi North 6.9 mph - N/A   Overcast
2:09 AM 46.4 °F 44.3 °F 46.4 °F 100% 29.51 in 1.0 mi North 4.6 mph - N/A   Overcast
2:18 AM 46.4 °F 43.5 °F 46.4 °F 100% 29.51 in 0.8 mi North 5.8 mph - N/A   Overcast
2:41 AM 46.4 °F 44.3 °F 46.4 °F 100% 29.50 in 0.8 mi North 4.6 mph - N/A   Overcast
2:58 AM 46.4 °F 43.5 °F 46.4 °F 100% 29.49 in 1.0 mi NW 5.8 mph - N/A   Overcast
3:21 AM 44.6 °F 41.4 °F 44.6 °F 100% 29.49 in 1.8 mi NNW 5.8 mph - N/A   Overcast
3:40 AM 44.6 °F 42.2 °F 44.6 °F 100% 29.48 in 2.5 mi North 4.6 mph - N/A   Overcast
3:56 AM 44.6 °F 41.4 °F 44.6 °F 100% 29.48 in 2.5 mi NNW 5.8 mph - N/A   Overcast
4:21 AM 44.6 °F 42.2 °F 44.6 °F 100% 29.47 in 2.0 mi North 4.6 mph - N/A   Overcast
4:58 AM 42.8 °F 40.1 °F 42.8 °F 100% 29.47 in 2.0 mi NW 4.6 mph - N/A   Heavy Drizzle
5:21 AM 42.8 °F 40.1 °F 42.8 °F 100% 29.47 in 3.0 mi NNW 4.6 mph - N/A   Overcast
5:36 AM 42.8 °F 39.3 °F 42.8 °F 100% 29.47 in 4.0 mi NNW 5.8 mph - N/A Rain Heavy Rain
6:01 AM 42.8 °F 40.1 °F 42.8 °F 100% 29.49 in 10.0 mi WNW 4.6 mph - N/A   Overcast
6:35 AM 42.8 °F 38.0 °F 41.0 °F 93% 29.49 in 10.0 mi WNW 8.1 mph - N/A Rain Light Rain
6:38 AM 42.8 °F 38.6 °F 41.0 °F 93% 29.49 in 7.0 mi WNW 6.9 mph - N/A Rain Light Rain
6:58 AM 41.0 °F 36.4 °F 41.0 °F 100% 29.49 in 7.0 mi NW 6.9 mph - N/A Rain Light Rain
7:16 AM 41.0 °F 35.8 °F 41.0 °F 100% 29.49 in 5.0 mi WNW 8.1 mph - N/A Rain Rain
7:36 AM 41.0 °F 36.4 °F 39.2 °F 93% 29.49 in 7.0 mi NW 6.9 mph - N/A Rain Light Rain
7:57 AM 41.0 °F 36.4 °F 39.2 °F 93% 29.49 in 10.0 mi NW 6.9 mph - N/A Rain Light Rain
8:18 AM 41.0 °F 35.2 °F 39.2 °F 93% 29.50 in 2.5 mi WNW 9.2 mph 16.1 mph N/A   Drizzle
8:37 AM 41.0 °F 35.2 °F 39.2 °F 93% 29.51 in 2.0 mi WNW 9.2 mph - N/A   Drizzle
8:56 AM 41.0 °F 34.7 °F 39.2 °F 93% 29.51 in 2.0 mi NW 10.4 mph - N/A   Drizzle
9:17 AM 41.0 °F 34.7 °F 39.2 °F 93% 29.51 in 2.5 mi WNW 10.4 mph 16.1 mph N/A   Drizzle
9:37 AM 41.0 °F 36.4 °F 39.2 °F 93% 29.52 in 10.0 mi NW 6.9 mph - N/A   Overcast
9:58 AM 41.0 °F 35.8 °F 39.2 °F 93% 29.52 in 10.0 mi WNW 8.1 mph - N/A   Light Drizzle
10:16 AM 41.0 °F 35.8 °F 39.2 °F 93% 29.52 in 10.0 mi WNW 8.1 mph - N/A Rain Light Rain
10:36 AM 41.0 °F 36.4 °F 39.2 °F 93% 29.53 in 10.0 mi WNW 6.9 mph - N/A Rain Light Rain
10:56 AM 41.0 °F 35.8 °F 39.2 °F 93% 29.53 in 7.0 mi WNW 8.1 mph - N/A Rain Rain
11:17 AM 41.0 °F 34.3 °F 39.2 °F 93% 29.53 in 5.0 mi WNW 11.5 mph - N/A Rain Light Rain
11:36 AM 41.0 °F 34.7 °F 39.2 °F 93% 29.54 in 10.0 mi WNW 10.4 mph - N/A Rain Rain
11:56 AM 41.0 °F 34.3 °F 39.2 °F 93% 29.54 in 5.0 mi WNW 11.5 mph 21.9 mph N/A   Drizzle
12:16 PM 41.0 °F 33.5 °F 39.2 °F 93% 29.55 in 10.0 mi WNW 13.8 mph 18.4 mph N/A Rain Light Rain
12:36 PM 41.0 °F 35.2 °F 39.2 °F 93% 29.55 in 10.0 mi WNW 9.2 mph 17.3 mph N/A Rain Light Rain
12:56 PM 42.8 °F 37.0 °F 41.0 °F 93% 29.56 in 10.0 mi WNW 10.4 mph 19.6 mph N/A Rain Light Rain
1:17 PM 42.8 °F 36.2 °F 39.2 °F 87% 29.57 in 7.0 mi WNW 12.7 mph 21.9 mph N/A   Light Drizzle
1:37 PM 42.8 °F 37.5 °F 39.2 °F 87% 29.57 in 10.0 mi WNW 9.2 mph 19.6 mph N/A   Light Drizzle
1:57 PM 42.8 °F 35.8 °F 39.2 °F 87% 29.58 in 5.0 mi WNW 13.8 mph 18.4 mph N/A   Light Drizzle
2:16 PM 42.8 °F 37.0 °F 39.2 °F 87% 29.59 in 4.0 mi WNW 10.4 mph - N/A   Drizzle
2:36 PM 42.8 °F 36.6 °F 41.0 °F 93% 29.60 in 5.0 mi WNW 11.5 mph 17.3 mph N/A Rain Light Rain
2:57 PM 42.8 °F 37.0 °F 39.2 °F 87% 29.60 in 7.0 mi WNW 10.4 mph 20.7 mph N/A   Overcast
3:16 PM 42.8 °F 37.5 °F 41.0 °F 93% 29.61 in 3.0 mi West 9.2 mph 17.3 mph N/A   Drizzle
3:38 PM 44.6 °F 38.8 °F 41.0 °F 87% 29.62 in 10.0 mi WNW 11.5 mph 18.4 mph N/A   Light Drizzle
3:56 PM 44.6 °F 39.7 °F 41.0 °F 87% 29.62 in 10.0 mi WNW 9.2 mph 19.6 mph N/A   Overcast
4:17 PM 44.6 °F 38.8 °F 41.0 °F 87% 29.63 in 10.0 mi WNW 11.5 mph - N/A   Overcast
4:36 PM 46.4 °F 41.9 °F 41.0 °F 81% 29.63 in 10.0 mi WNW 9.2 mph 18.4 mph N/A   Overcast
4:57 PM 46.4 °F 41.5 °F 41.0 °F 81% 29.64 in 10.0 mi WNW 10.4 mph - N/A   Overcast
5:17 PM 46.4 °F 43.5 °F 41.0 °F 81% 29.65 in 10.0 mi WNW 5.8 mph - N/A   Overcast
5:36 PM 48.2 °F - 41.0 °F 76% 29.65 in 10.0 mi West 9.2 mph - N/A   Overcast
5:57 PM 51.8 °F - 37.4 °F 58% 29.65 in 10.0 mi West 9.2 mph 17.3 mph N/A   Scattered Clouds
6:19 PM 51.8 °F - 37.4 °F 58% 29.65 in 10.0 mi West 11.5 mph - N/A   Clear
6:36 PM 53.6 °F - 37.4 °F 54% 29.65 in 10.0 mi WNW 6.9 mph - N/A   Scattered Clouds
6:56 PM 53.6 °F - 37.4 °F 54% 29.66 in 10.0 mi West 9.2 mph - N/A   Scattered Clouds
7:16 PM 53.6 °F - 33.8 °F 47% 29.66 in 10.0 mi West 6.9 mph - N/A   Clear
7:38 PM 53.6 °F - 32.0 °F 44% 29.67 in 10.0 mi WNW 6.9 mph - N/A   Clear
7:57 PM 51.8 °F - 32.0 °F 47% 29.67 in 10.0 mi WNW 5.8 mph - N/A   Clear
8:17 PM 50.0 °F - 32.0 °F 50% 29.68 in 10.0 mi West 5.8 mph - N/A   Clear
8:38 PM 48.2 °F - 33.8 °F 58% 29.69 in 10.0 mi West 5.8 mph - N/A   Scattered Clouds
8:56 PM 48.2 °F - 33.8 °F 58% 29.70 in 10.0 mi West 5.8 mph - N/A   Scattered Clouds
9:18 PM 44.6 °F 43.1 °F 33.8 °F 66% 29.70 in 10.0 mi West 3.5 mph - N/A   Clear
9:39 PM 42.8 °F 41.1 °F 35.6 °F 76% 29.71 in 10.0 mi West 3.5 mph - N/A   Clear
9:56 PM 41.0 °F 39.0 °F 35.6 °F 81% 29.72 in 10.0 mi West 3.5 mph - N/A   Clear
10:19 PM 37.4 °F - 35.6 °F 93% 29.72 in 10.0 mi Calm Calm - N/A   Clear
10:37 PM 37.4 °F 34.9 °F 35.6 °F 93% 29.73 in 10.0 mi WSW 3.5 mph - N/A   Clear
10:58 PM 37.4 °F 34.9 °F 35.6 °F 93% 29.73 in 10.0 mi WSW 3.5 mph - N/A   Clear
11:17 PM 37.4 °F 34.9 °F 35.6 °F 93% 29.74 in 10.0 mi West 3.5 mph - N/A   Clear
11:36 PM 39.2 °F 37.0 °F 35.6 °F 87% 29.74 in 10.0 mi West 3.5 mph - N/A   Clear